Location: Marcé
(47.5801°N, 0.3280°W)
Time: 23:34:02
(UTC+01:00)

S-56A Canister/Altair - Pass Details

Date: 06 December 2021
Orbit: 633 x 2499 km, 38.9° (Epoch: 16 January)

Event Time Altitude Azimuth Distance (km) Brightness Sun altitude
Rises 22:25:53 0° 208° (SSW) 5,851 12.0 -51.5°
Enters shadow 22:28:41 - 202° (SSW) 5,155 11.7 -52.0°
Reaches altitude 10° 22:31:02 10° 196° (SSW) 4,590 - -52.3°
Maximum altitude 22:39:41 23° 151° (SSE) 3,082 - -53.6°
Drops below altitude 10° 22:46:24 10° 103° (ESE) 3,476 - -54.5°
Sets 22:49:37 0° 89° (E) 4,169 - -55.0°
